This is the latest recevied weather packets stored in our database for station/object W2GRK-15. If no packets are shown the sender has not sent any weather packets the latest 10 day(s).
| Time | Temp. | Humidity | Pressure | Rain* | Wind** | Luminosity | Snow |
|---|---|---|---|---|---|---|---|
| 1777899440 | 15° C | 56% | 1014.6 hPa | 0 mm | - | 378 W/m² | - |
| 1777898909 | 14.44° C | 59% | 1014.6 hPa | 0 mm | - | 343 W/m² | - |
| 1777898667 | 14.44° C | 59% | 1014.9 hPa | 0 mm | - | 328 W/m² | - |
| 1777898204 | 13.89° C | 60% | 1014.7 hPa | 0 mm | - | 294 W/m² | - |
| 1777897899 | 13.33° C | 61% | 1014.8 hPa | 0 mm | - | 274 W/m² | - |
| 1777897766 | 13.33° C | 62% | 1014.7 hPa | 0 mm | - | 268 W/m² | - |
| 1777897282 | 12.22° C | 63% | 1014.8 hPa | 0 mm | - | 241 W/m² | - |
| 1777897105 | 12.22° C | 63% | 1014.7 hPa | 0 mm | - | 234 W/m² | - |
| 1777896928 | 12.22° C | 64% | 1015 hPa | 0 mm | - | 225 W/m² | - |
| 1777896864 | 12.22° C | 64% | 1014.9 hPa | 0 mm | - | 222 W/m² | - |
| 1777896799 | 12.22° C | 65% | 1015.1 hPa | 0 mm | - | 220 W/m² | - |
| 1777896771 | 12.22° C | 64% | 1014.9 hPa | 0 mm | - | 217 W/m² | - |
| 1777896622 | 12.22° C | 64% | 1014.8 hPa | 0 mm | - | 210 W/m² | - |
| 1777896509 | 12.22° C | 65% | 1014.9 hPa | 0 mm | - | 206 W/m² | - |
| 1777896445 | 12.22° C | 64% | 1015.1 hPa | 0 mm | - | 203 W/m² | - |
| 1777896316 | 11.67° C | 64% | 1014.8 hPa | 0 mm | - | 198 W/m² | - |
| 1777896139 | 11.67° C | 65% | 1014.9 hPa | 0 mm | - | 189 W/m² | - |
| 1777896026 | 11.67° C | 65% | 1014.9 hPa | 0 mm | - | 184 W/m² | - |
| 1777895962 | 11.11° C | 65% | 1014.9 hPa | 0 mm | - | 181 W/m² | - |
| 1777895499 | 11.11° C | 65% | 1015 hPa | 0 mm | - | 161 W/m² | - |
| 1777894335 | 10° C | 67% | 1014.9 hPa | 0 mm | - | 104 W/m² | - |
| 1777894243 | 10° C | 68% | 1015 hPa | 0 mm | - | 96 W/m² | - |
| 1777894158 | 10° C | 68% | 1015.1 hPa | 0 mm | - | 90 W/m² | - |
| 1777894130 | 10° C | 68% | 1015 hPa | 0 mm | - | 86 W/m² | - |
| 1777894085 | 9.44° C | 68% | 1015.1 hPa | 0 mm | - | 83 W/m² | - |
* Rain latest hour (hover to see other rain measurements)
** Current wind speed in m/s (hover to see current wind gust speed)